Location: Makanda
(37.6176°N, 89.2090°W)
Time: 13:16:59
(UTC+00:00)

ASTRO E2 - Pass Details

Date: 23 September 2019
Orbit: 511 x 517 km, 31.4° (Epoch: 20 October)

Event Time Altitude Azimuth Distance (km) Brightness Sun altitude
Exits shadow 10:33:52 21° 222° (SW) 1,169 4.0 -14.9°
Maximum altitude 10:35:06 25° 192° (SSW) 1,050 4.0 -14.6°
Drops below altitude 10° 10:38:24 10° 136° (SE) 1,723 5.8 -14.0°
Sets 10:40:54 0° 123° (ESE) 2,609 7.0 -13.5°
